Theta_e
318 318 318 318 318 318 318 319 319 319 319 319 319 319 319 319 320 320 320 320 321 321 322 322 324 326 321 319 328 333 353 352 338 333 339 342 337 332 328 325 324 324 333 333 329 330 330
318 318 318 319 318 318 318 318 319 318 318 318 318 318 318 319 319 319 319 320 320 320 321 322 325 326 323 318 335 333 339 338 341 341 344 346 341 337 336 334 331 334 330 332 330 329 330
318 318 318 318 318 318 318 318 318 318 317 318 318 317 318 318 318 318 318 319 319 319 321 323 325 325 318 318 338 336 339 337 339 340 340 343 344 337 336 332 337 334 325 327 326 330 328
318 317 318 318 318 318 318 318 317 317 317 317 317 317 317 317 317 318 317 318 318 320 322 324 327 320 313 331 329 337 336 333 337 338 340 338 338 331 331 335 330 327 324 317 326 326 330
317 318 318 318 318 317 317 317 317 317 317 318 318 317 317 317 317 317 317 317 318 321 324 326 320 313 316 330 323 330 333 329 333 337 336 338 332 326 330 325 321 323 314 317 320 327 328
318 318 318 319 318 318 318 318 318 317 317 317 316 317 317 317 317 316 315 317 322 322 324 324 322 313 319 321 324 328 335 333 330 329 329 328 324 320 322 322 311 315 314 318 318 322 322
318 318 318 318 318 318 318 318 317 317 317 317 317 316 316 316 316 315 313 314 314 311 311 312 314 317 323 326 329 326 331 331 330 325 317 324 316 316 324 323 324 322 316 314 320 322 316
318 318 318 318 318 318 318 318 318 318 317 317 317 316 316 315 315 314 310 309 315 314 308 315 316 318 323 326 321 325 329 322 322 316 321 320 314 324 329 326 324 320 315 313 319 322 316
318 318 318 318 318 318 317 317 317 317 317 317 316 316 315 314 314 312 313 315 321 317 306 312 316 315 317 319 319 321 324 323 319 318 320 316 321 328 326 323 319 315 312 313 313 316 315
318 318 318 318 318 317 317 317 317 317 316 316 316 315 314 312 312 313 314 320 320 317 301 306 307 314 318 318 314 323 325 323 319 315 318 317 322 322 322 321 317 309 320 319 316 311 303
318 318 318 317 317 317 317 316 316 316 316 315 315 315 314 311 307 309 315 319 318 314 294 312 309 318 318 313 316 317 323 321 315 316 315 313 316 315 315 317 319 314 320 316 315 308 305
318 318 317 317 317 317 316 316 316 315 315 315 314 314 312 314 311 315 316 316 316 300 296 308 311 307 306 311 314 317 317 321 322 316 316 315 321 318 316 320 319 321 316 313 310 305 299
317 318 317 317 316 316 316 315 315 315 315 314 313 312 310 316 312 315 315 313 300 296 313 306 305 308 305 304 308 311 310 311 307 302 305 312 314 317 319 313 316 313 306 299 296 297 298
317 317 317 316 316 316 315 315 315 315 314 313 311 310 312 315 315 315 312 306 297 308 309 313 311 309 304 305 306 308 306 305 311 309 305 302 302 312 318 313 309 309 306 298 293 294 298
317 317 316 316 316 315 315 315 315 314 313 311 309 318 316 318 316 315 308 299 302 308 312 310 309 305 305 308 307 306 304 304 309 311 304 302 304 316 317 316 315 308 303 309 299 298 295
316 316 316 316 315 315 315 315 315 314 313 310 311 317 317 321 318 310 304 299 305 311 311 312 305 308 304 307 306 305 304 308 307 310 309 306 302 311 315 314 312 309 311 299 298 290 291
316 316 316 315 315 315 315 315 314 313 311 310 314 312 317 320 315 307 299 300 305 310 311 310 307 306 306 307 308 306 307 311 311 310 310 305 300 303 309 305 304 304 302 302 300 297 291
316 316 315 316 315 315 315 314 313 312 310 312 313 310 322 319 305 305 300 304 305 307 310 310 311 308 306 308 306 306 307 310 314 313 306 308 301 297 302 310 311 307 304 303 297 296 298
315 316 315 315 315 315 315 314 313 311 310 306 308 315 322 317 302 301 304 305 307 307 307 307 308 310 309 305 302 307 309 314 315 312 307 309 302 296 300 303 306 303 307 309 304 300 296
315 315 315 315 315 315 315 314 313 312 311 307 311 311 315 314 312 306 302 304 306 310 308 309 308 308 306 304 305 304 306 311 313 312 328 314 302 300 296 301 305 304 308 308 306 300 300
315 315 315 315 315 315 315 314 313 312 311 308 315 312 315 309 309 307 305 305 305 306 310 310 306 306 304 300 304 304 308 308 311 318 310 306 299 302 304 308 309 307 308 309 307 307 304
315 315 315 315 315 315 315 314 314 312 310 312 313 309 311 310 312 310 305 304 305 307 308 308 307 311 309 304 306 307 309 308 306 311 307 306 300 304 302 308 308 307 309 309 311 311 306
314 314 315 315 314 314 315 314 313 311 310 310 316 316 311 308 309 307 308 311 310 311 312 313 313 312 312 313 315 314 314 313 311 307 306 305 304 304 300 308 307 302 307 309 310 311 309
314 314 314 315 313 313 313 313 313 312 310 308 311 312 308 305 309 309 310 311 311 313 311 315 316 313 318 318 316 314 312 311 311 311 309 303 303 303 299 301 294 304 310 313 312 313 312
313 313 313 313 313 313 313 313 313 313 311 308 311 311 308 303 308 309 309 309 310 315 313 313 315 317 317 314 307 304 305 306 309 312 309 307 302 298 296 298 301 307 312 310 307 311 318
313 313 312 313 312 313 312 313 313 313 311 309 310 316 311 305 307 309 307 310 306 306 307 311 315 315 312 309 305 299 298 303 305 308 312 310 306 303 299 295 294 306 313 317 315 306 321
314 313 313 312 313 312 312 312 313 314 311 309 309 315 313 305 309 309 306 304 309 307 305 309 311 312 314 306 301 299 299 306 301 303 308 307 307 303 303 303 305 312 318 319 302 307 318
313 313 313 313 313 313 313 313 313 313 313 310 309 314 315 308 308 310 312 309 308 307 304 309 308 309 308 301 300 302 301 303 302 307 306 303 303 304 305 299 297 319 318 312 314 318 319
312 312 313 313 313 313 313 313 312 313 313 312 308 313 318 312 309 315 315 316 314 312 307 310 306 308 311 308 309 308 306 307 304 300 311 305 308 306 308 307 315 317 315 316 315 313 315
Wind_Speed
15 15 16 15 15 16 16 16 16 16 16 17 17 17 17 17 18 18 18 18 18 17 16 15 12 11 4 4 7 7 8 6 5 5 6 4 8 5 6 10 8 17 21 21 7 3 6
15 16 16 16 16 17 17 17 17 17 17 17 17 17 18 18 19 19 19 18 18 18 16 15 11 10 3 5 7 13 9 6 8 10 10 10 10 15 12 13 17 16 32 13 11 8 7
16 17 17 17 17 17 18 18 17 17 18 18 18 18 18 19 20 20 20 20 20 19 15 14 10 5 5 11 10 12 10 8 8 11 9 10 9 22 10 14 15 25 7 3 5 10 6
16 16 17 17 17 17 17 17 18 18 18 18 19 19 19 20 20 21 22 22 21 19 14 12 7 4 9 6 9 12 11 11 11 12 15 9 8 5 6 6 10 5 5 5 9 6 12
16 16 17 17 17 17 17 17 18 18 18 17 18 19 19 19 20 21 23 24 23 17 9 7 3 4 9 2 7 10 12 12 12 13 11 12 7 8 6 5 6 3 4 5 4 7 6
17 17 17 18 18 18 18 18 18 18 19 18 18 18 18 19 19 20 25 24 8 9 6 8 8 6 8 10 7 11 9 10 9 8 8 9 6 5 4 4 5 6 3 6 4 5 4
17 17 18 18 18 18 18 18 18 18 19 20 20 20 19 19 19 17 15 5 3 2 5 10 8 8 9 12 12 8 9 8 8 8 8 10 5 5 9 11 15 19 5 6 8 6 3
17 17 18 18 18 18 17 18 19 19 19 20 20 21 21 21 19 16 5 4 8 5 8 15 20 18 21 9 5 7 7 7 6 8 10 9 9 11 10 12 10 11 10 9 6 6 5
17 18 17 17 17 18 18 18 19 20 21 21 21 20 21 23 25 5 6 9 11 10 5 11 15 11 17 6 8 10 10 8 9 9 13 9 14 13 10 7 7 7 7 5 3 8 7
17 16 17 17 18 18 19 19 20 20 21 21 21 21 21 27 3 5 5 11 11 6 4 9 9 15 15 6 12 12 9 9 7 12 15 10 12 14 10 7 4 7 10 8 7 7 4
16 16 17 18 19 19 19 20 21 22 21 21 21 20 19 10 8 5 7 13 5 3 4 8 9 7 12 13 2 10 10 8 10 12 7 12 12 12 10 8 6 7 13 7 7 7 8
17 17 17 18 19 20 20 21 21 22 23 23 21 18 20 3 4 11 13 13 4 1 8 5 6 6 7 11 17 15 8 7 8 11 14 13 15 10 8 8 5 6 8 7 7 3 5
18 18 18 18 18 19 21 22 23 23 24 25 24 17 9 7 6 10 12 4 1 5 3 8 7 10 8 8 11 8 8 10 7 3 7 11 14 14 14 9 6 5 7 5 6 4 8
18 18 19 19 19 20 21 22 23 25 26 27 28 21 9 8 7 8 4 2 5 10 11 8 10 13 11 13 13 15 12 9 10 11 7 6 9 13 14 12 12 9 9 6 7 4 9
17 18 19 20 21 21 22 23 24 26 28 28 30 3 4 7 12 4 0 4 7 7 14 10 2 4 9 11 11 13 14 12 9 12 11 7 13 17 16 11 16 11 5 11 4 6 5
17 18 18 19 21 22 23 24 26 28 31 27 5 4 7 6 12 3 2 6 8 10 18 9 6 6 6 8 8 11 12 15 17 15 9 9 10 11 17 7 8 10 6 2 5 4 7
17 17 18 19 20 22 23 24 25 28 33 26 4 3 3 14 8 1 5 7 9 14 16 4 7 10 12 11 7 7 10 10 11 18 17 10 6 10 6 6 8 7 3 3 7 6 6
17 17 18 19 20 21 23 24 24 25 31 9 5 4 9 6 3 4 7 6 7 19 20 9 2 7 10 9 7 8 9 6 13 7 3 3 4 6 12 9 7 8 9 7 6 9 6
17 17 17 18 20 21 22 23 23 21 19 7 5 4 4 7 4 8 10 17 20 19 17 11 5 5 7 8 7 7 10 11 11 6 3 6 5 5 12 9 7 4 5 3 5 4 5
16 17 18 18 19 20 22 24 24 24 17 4 4 4 3 3 7 9 9 10 13 17 17 7 7 9 9 7 7 6 9 12 14 8 1 4 2 4 6 10 6 9 11 7 3 2 1
16 16 17 18 19 20 22 24 26 28 28 3 4 4 4 3 5 10 9 11 16 14 10 5 2 5 8 7 8 8 9 10 15 6 3 4 5 6 9 11 17 11 14 10 6 7 8
16 16 17 18 19 20 22 23 25 28 35 3 4 5 7 9 12 12 9 9 15 16 10 6 8 8 10 6 4 5 6 6 5 10 8 5 7 8 7 10 13 18 12 11 10 8 4
15 16 17 17 19 20 21 22 23 23 22 5 6 6 4 8 9 9 7 9 11 9 11 10 6 4 4 7 8 8 8 9 8 5 8 6 3 4 3 8 9 7 8 5 10 5 2
17 14 16 17 19 20 21 22 22 18 13 4 5 6 4 7 9 11 20 16 11 7 5 7 10 4 4 8 8 9 9 10 10 14 8 7 5 0 3 6 7 8 2 4 4 2 3
16 16 17 18 18 19 20 20 21 18 13 5 5 4 4 7 9 12 18 17 15 6 5 8 7 5 8 6 5 7 8 7 15 18 12 9 4 4 3 8 7 8 6 6 5 10 16
15 15 16 17 18 19 19 19 19 17 15 6 7 6 3 4 3 14 15 12 6 11 8 6 7 5 4 3 3 4 5 8 7 5 10 11 8 7 3 5 7 3 9 11 9 6 14
15 15 16 16 17 18 19 19 19 17 15 7 7 6 4 5 6 12 7 7 6 7 5 6 8 5 6 2 3 6 9 7 6 6 5 4 4 2 4 0 3 6 10 6 3 3 11
15 15 15 15 16 17 17 18 18 18 16 9 9 9 5 4 12 8 11 7 8 5 4 8 8 8 3 0 3 6 5 6 4 4 4 2 2 3 4 6 6 10 9 7 3 3 4
16 15 16 16 15 16 17 17 16 15 14 12 5 8 9 4 8 15 18 17 16 12 4 5 3 5 2 3 5 5 4 5 5 4 9 6 4 1 2 4 7 11 10 5 5 5 6
Wind_Direction
19 16 12 12 8 6 5 2 0 357 355 352 346 343 339 336 331 329 326 324 319 316 315 312 319 318 302 245 251 147 178 194 162 171 129 117 79 61 194 233 292 266 263 263 145 147 128
17 15 11 7 7 4 0 360 357 353 351 348 343 339 336 334 330 327 324 320 314 311 310 309 312 316 233 270 107 151 179 171 230 204 188 168 222 144 233 238 205 221 233 231 170 169 143
16 13 10 6 4 1 357 355 353 349 347 343 340 336 333 331 328 325 321 315 312 305 304 300 303 293 266 242 140 165 197 192 223 243 264 210 145 161 213 262 233 247 304 339 229 171 139
15 12 8 6 3 359 355 353 350 346 344 339 336 334 331 329 326 323 317 310 306 297 298 283 271 266 254 250 214 183 193 246 217 236 252 270 268 272 212 263 328 316 215 186 245 182 152
14 12 9 4 3 359 355 351 347 342 339 336 334 331 329 326 324 321 315 306 296 286 254 254 246 218 264 210 207 214 176 220 230 230 242 256 266 235 313 46 352 281 260 278 185 174 168
12 7 5 3 359 355 351 349 345 344 339 336 332 329 326 324 323 324 317 295 276 304 204 216 255 318 248 235 205 215 192 219 255 270 256 236 238 215 343 100 240 250 214 267 226 211 195
9 5 2 359 355 352 349 346 341 336 336 332 330 329 326 323 322 328 339 351 317 308 241 214 202 231 295 220 232 190 194 211 245 281 275 270 238 219 220 218 247 271 262 262 168 137 152
5 2 359 355 350 346 345 341 337 334 333 331 329 328 324 322 316 318 288 262 268 306 297 228 254 251 266 263 178 220 196 195 221 245 263 277 251 247 212 217 250 284 300 303 253 154 140
4 359 355 352 348 345 342 340 337 333 330 329 327 326 326 320 315 280 226 242 287 311 290 273 233 229 248 211 224 223 184 203 235 252 255 255 266 285 188 242 297 269 261 299 1 333 335
3 357 353 350 347 344 341 339 336 333 329 327 326 326 330 326 313 341 238 265 254 311 298 262 197 226 242 212 245 249 203 183 215 245 271 268 281 296 266 240 213 282 294 339 353 25 294
2 358 354 350 346 344 341 338 335 332 329 325 324 324 324 335 307 283 338 336 338 8 294 161 182 186 190 208 31 205 236 190 225 252 247 264 278 291 293 274 311 285 302 8 353 341 323
359 356 354 351 347 344 340 337 335 332 328 324 321 321 329 114 205 249 298 288 328 314 245 147 129 168 174 212 236 260 218 216 204 239 273 276 292 296 284 321 335 305 310 359 324 280 296
356 354 353 350 348 345 341 338 336 333 328 322 316 312 302 306 230 343 322 321 313 230 279 150 170 164 196 216 225 241 249 215 197 248 275 282 270 275 277 299 284 299 351 335 329 323 239
354 353 350 348 347 345 342 340 337 334 329 324 315 310 226 222 254 327 282 328 249 276 268 188 155 163 175 202 212 209 232 243 205 215 260 252 278 250 247 220 219 212 187 176 260 277 289
353 351 350 347 345 344 344 342 340 336 331 328 312 154 237 235 208 246 267 212 221 217 355 0 143 209 208 203 200 191 204 227 226 208 216 235 273 286 286 295 199 241 223 224 279 291 310
351 350 349 347 345 344 344 344 343 340 333 336 308 273 229 193 159 178 181 252 265 317 322 356 348 331 328 289 190 170 184 211 228 232 212 232 250 254 273 314 302 175 196 351 345 316 285
350 350 349 347 346 345 344 345 346 344 337 332 248 265 80 148 156 170 217 239 283 275 272 283 304 319 324 329 349 244 204 247 227 222 219 227 224 272 244 266 250 315 289 211 171 165 201
348 348 349 348 347 345 345 346 348 350 341 356 307 270 156 149 145 210 233 246 267 283 292 289 124 287 293 319 328 340 334 349 0 345 8 240 207 248 233 251 266 243 259 206 157 264 238
346 346 348 348 347 345 345 346 348 354 9 320 298 277 180 177 218 228 251 244 244 269 277 282 231 216 270 296 322 333 327 328 339 329 60 350 346 1 343 333 293 330 338 331 317 220 234
344 346 347 347 347 346 346 346 346 344 347 301 275 279 167 198 252 260 276 281 276 233 255 285 358 354 329 322 312 310 316 309 312 338 190 61 297 198 227 249 289 311 308 300 87 69 283
342 344 345 345 346 346 347 347 346 343 338 214 233 277 40 292 260 238 248 279 296 299 242 187 226 286 278 301 314 301 296 296 297 295 224 164 237 275 289 294 298 292 297 308 270 219 143
341 341 342 344 345 346 347 349 349 349 336 222 324 353 331 289 297 315 205 240 266 288 297 253 162 214 258 243 261 303 346 333 265 327 339 287 251 233 262 267 276 290 302 311 348 356 32
336 338 339 342 347 347 348 351 352 360 348 344 342 334 296 292 307 319 287 275 288 254 291 288 355 219 14 38 21 338 317 303 296 314 312 311 1 16 271 329 339 351 336 30 116 98 100
339 338 338 339 344 346 347 350 352 357 19 308 288 299 295 295 314 317 328 320 247 38 358 350 12 327 18 59 27 341 308 297 292 283 262 279 311 221 253 339 301 254 123 65 7 80 228
340 340 340 339 340 343 345 346 349 347 355 323 287 287 313 301 322 318 340 336 349 23 351 321 325 339 342 33 25 324 303 278 257 258 236 233 249 277 212 249 264 291 27 27 46 41 21
336 339 339 339 338 340 342 343 345 344 351 324 284 256 313 290 209 332 316 338 352 355 330 286 278 258 294 74 32 278 264 269 275 275 230 221 202 186 243 235 239 33 354 350 331 54 9
333 333 337 339 338 338 338 339 340 343 349 336 281 291 284 290 263 338 4 335 319 340 308 23 339 17 86 78 254 260 269 281 293 327 2 360 342 220 214 167 77 345 16 334 65 302 334
330 330 329 331 335 335 334 334 336 340 348 350 279 279 290 279 290 287 331 336 331 340 0 320 338 1 339 229 215 246 255 269 309 313 339 52 71 26 28 46 283 349 44 63 236 270 277
328 328 328 327 327 332 332 331 332 335 343 345 278 347 332 253 268 304 283 267 264 276 312 323 292 301 327 26 10 327 338 3 359 330 4 39 79 110 52 170 82 56 82 46 17 338 326